Location: Bocianicha
(51.5066°N, 19.2563°E)
Time: 13:41:33
(UTC+00:00)

MOZ.5/SAFIR/RUBIN 5/SL-8 - Pass Details

Date: 15 June 2025
Orbit: 668 x 693 km, 98.3° (Epoch: 17 July)

Event Time Altitude Azimuth Distance (km) Brightness Sun altitude
Exits shadow 01:03:03 - 187° (S) 2,154 5.8 -9.2°
Reaches altitude 10° 01:03:13 10° 188° (S) 2,093 5.7 -9.1°
Maximum altitude 01:07:35 44° 261° (W) 923 4.2 -8.8°
Drops below altitude 10° 01:12:00 10° 334° (NNW) 2,110 6.7 -8.4°
Sets 01:14:20 0° 341° (NNW) 3,030 7.7 -8.2°
